When you browse on this site, cookies collect data to enhance your experience and personalize the content and advertising you see.
Visit our Privacy Policy to learn more. By continuing to use the site, you agree to this use of cookies and data.
  • In Switzerland
  • List of Countries
  • For 7 days
  • Water Temperature
  • Weather Map
  • Weather Widgets
  • user-avatar
    Login

    Hourly Weather San Miguel de Tucumán

    Today, 15 November, Friday

    Time Temperature Precipitation Wind Pressure Humidity
    00:00 +25°C° 0 mm 1 mps 720 mmHg 49%
    01:00 +24°C° 0 mm 1 mps 720 mmHg 50%
    02:00 +23°C° 0 mm 1 mps 719 mmHg 52%
    03:00 +23°C° 0 mm 1 mps 719 mmHg 53%
    04:00 +23°C° 0 mm 1 mps 719 mmHg 54%
    05:00 +22°C° 0 mm 1 mps 719 mmHg 55%
    06:00 +24°C° 0 mm 1 mps 719 mmHg 51%
    07:00 +27°C° 0 mm 1 mps 720 mmHg 47%
    08:00 +29°C° 0 mm 1 mps 721 mmHg 42%
    09:00 +31°C° 0 mm 1 mps 721 mmHg 38%
    10:00 +34°C° 0 mm 2 mps 720 mmHg 34%
    11:00 +36°C° 0 mm 2 mps 720 mmHg 31%
    12:00 +37°C° 0 mm 2 mps 720 mmHg 29%
    13:00 +38°C° 0 mm 3 mps 719 mmHg 28%
    14:00 +39°C° 0 mm 3 mps 718 mmHg 26%
    15:00 +38°C° 0 mm 3 mps 718 mmHg 27%
    16:00 +37°C° 0 mm 3 mps 717 mmHg 29%
    17:00 +37°C° 0 mm 4 mps 717 mmHg 30%
    18:00 +35°C° 0 mm 3 mps 717 mmHg 35%
    19:00 +31°C° 0 mm 3 mps 717 mmHg 41%
    20:00 +29°C° 0 mm 3 mps 718 mmHg 46%
    21:00 +28°C° 0 mm 2 mps 718 mmHg 47%
    22:00 +28°C° 0 mm 2 mps 718 mmHg 48%
    23:00 +27°C° 0 mm 2 mps 718 mmHg 49%

    Tomorrow, 16 November, Saturday

    Time Temperature Precipitation Wind Pressure Humidity
    00:00 +27°C° 0 mm 2 mps 718 mmHg 50%
    01:00 +26°C° 0 mm 2 mps 717 mmHg 50%
    02:00 +26°C° 0 mm 2 mps 717 mmHg 51%
    03:00 +25°C° 0 mm 2 mps 717 mmHg 53%
    04:00 +25°C° 0 mm 1 mps 717 mmHg 55%
    05:00 +24°C° 0 mm 1 mps 717 mmHg 56%
    06:00 +26°C° 0 mm 1 mps 717 mmHg 52%
    07:00 +27°C° 0 mm 1 mps 718 mmHg 49%
    08:00 +29°C° 0 mm 2 mps 718 mmHg 45%
    09:00 +31°C° 0 mm 2 mps 718 mmHg 40%
    10:00 +34°C° 0 mm 2 mps 718 mmHg 36%
    11:00 +37°C° 0 mm 2 mps 718 mmHg 31%
    12:00 +37°C° 0 mm 2 mps 717 mmHg 30%
    13:00 +38°C° 0 mm 2 mps 716 mmHg 28%
    14:00 +39°C° 0 mm 3 mps 716 mmHg 27%
    15:00 +38°C° 0 mm 3 mps 715 mmHg 28%
    16:00 +38°C° 0 mm 3 mps 715 mmHg 29%
    17:00 +37°C° 0 mm 3 mps 714 mmHg 31%
    18:00 +35°C° 0 mm 3 mps 715 mmHg 35%
    19:00 +33°C° 0 mm 3 mps 715 mmHg 39%
    20:00 +30°C° 0 mm 3 mps 716 mmHg 43%
    21:00 +29°C° 0 mm 3 mps 716 mmHg 44%
    22:00 +29°C° 0 mm 2 mps 716 mmHg 45%
    23:00 +28°C° 0 mm 2 mps 717 mmHg 46%

    Day after tomorrow, 17 November, Sunday

    Time Temperature Precipitation Wind Pressure Humidity
    00:00 +28°C° 0 mm 2 mps 717 mmHg 47%
    01:00 +27°C° 0 mm 2 mps 716 mmHg 48%
    02:00 +27°C° 0 mm 1 mps 716 mmHg 49%
    03:00 +26°C° 0 mm 1 mps 716 mmHg 52%
    04:00 +25°C° 0 mm 1 mps 716 mmHg 54%
    05:00 +25°C° 0 mm 1 mps 717 mmHg 56%
    06:00 +26°C° 0 mm 1 mps 717 mmHg 51%
    07:00 +28°C° 0 mm 1 mps 717 mmHg 46%
    08:00 +29°C° 0 mm 2 mps 718 mmHg 40%
    09:00 +32°C° 0 mm 2 mps 718 mmHg 36%
    10:00 +35°C° 0 mm 2 mps 718 mmHg 31%
    11:00 +37°C° 0 mm 2 mps 718 mmHg 26%
    12:00 +38°C° 0 mm 3 mps 718 mmHg 25%
    13:00 +39°C° 0 mm 3 mps 717 mmHg 23%
    14:00 +40°C° 0 mm 4 mps 717 mmHg 22%
    15:00 +40°C° 0 mm 4 mps 716 mmHg 24%
    16:00 +38°C° 0 mm 4 mps 716 mmHg 25%
    17:00 +37°C° 0 mm 3 mps 716 mmHg 27%
    18:00 +35°C° 0 mm 3 mps 716 mmHg 30%
    19:00 +33°C° 0 mm 3 mps 716 mmHg 34%
    20:00 +30°C° 0 mm 2 mps 717 mmHg 38%
    21:00 +29°C° 0 mm 2 mps 717 mmHg 40%
    22:00 +29°C° 0 mm 2 mps 717 mmHg 41%
    23:00 +28°C° 0 mm 2 mps 717 mmHg 43%

    18 November, Monday

    Time Temperature Precipitation Wind Pressure Humidity
    00:00 +27°C° 0 mm 2 mps 717 mmHg 45%
    01:00 +27°C° 0 mm 1 mps 717 mmHg 47%
    02:00 +26°C° 0 mm 1 mps 716 mmHg 49%
    03:00 +25°C° 0 mm 1 mps 716 mmHg 51%
    04:00 +25°C° 0 mm 1 mps 717 mmHg 52%
    05:00 +25°C° 0 mm 1 mps 717 mmHg 53%
    06:00 +27°C° 0 mm 1 mps 718 mmHg 47%
    07:00 +29°C° 0 mm 1 mps 718 mmHg 42%
    08:00 +31°C° 0 mm 1 mps 719 mmHg 36%
    09:00 +33°C° 0 mm 1 mps 719 mmHg 32%
    10:00 +35°C° 0 mm 1 mps 719 mmHg 29%
    11:00 +38°C° 0 mm 2 mps 720 mmHg 25%
    12:00 +39°C° 0 mm 2 mps 719 mmHg 24%
    13:00 +40°C° 0 mm 2 mps 719 mmHg 22%
    14:00 +41°C° 0 mm 2 mps 718 mmHg 21%
    15:00 +40°C° 0 mm 2 mps 718 mmHg 22%
    16:00 +40°C° 0 mm 2 mps 717 mmHg 22%
    17:00 +39°C° 0 mm 2 mps 717 mmHg 23%
    18:00 +37°C° 0 mm 2 mps 717 mmHg 27%
    19:00 +34°C° 0 mm 2 mps 718 mmHg 32%
    20:00 +31°C° 0 mm 1 mps 718 mmHg 37%
    21:00 +30°C° 0 mm 1 mps 718 mmHg 37%
    22:00 +30°C° 0 mm 1 mps 719 mmHg 38%
    23:00 +29°C° 0 mm 1 mps 719 mmHg 39%

    19 November, Tuesday

    Time Temperature Precipitation Wind Pressure Humidity
    00:00 +28°C° 0 mm 1 mps 719 mmHg 42%
    01:00 +27°C° 0 mm 1 mps 719 mmHg 44%
    02:00 +26°C° 0 mm 1 mps 719 mmHg 47%
    03:00 +26°C° 0 mm 1 mps 719 mmHg 48%
    04:00 +25°C° 0 mm 1 mps 719 mmHg 49%
    05:00 +25°C° 0 mm 1 mps 719 mmHg 50%
    06:00 +27°C° 0 mm 1 mps 719 mmHg 46%
    07:00 +29°C° 0 mm 1 mps 720 mmHg 41%
    08:00 +31°C° 0 mm 1 mps 720 mmHg 37%
    09:00 +34°C° 0 mm 2 mps 720 mmHg 32%
    10:00 +37°C° 0 mm 2 mps 720 mmHg 28%
    11:00 +39°C° 0 mm 3 mps 720 mmHg 23%
    12:00 +40°C° 0 mm 3 mps 719 mmHg 21%
    13:00 +43°C° 0 mm 4 mps 718 mmHg 18%
    14:00 +44°C° 0 mm 4 mps 717 mmHg 16%
    15:00 +43°C° 0 mm 4 mps 717 mmHg 17%
    16:00 +43°C° 0 mm 5 mps 716 mmHg 18%
    17:00 +42°C° 0 mm 5 mps 715 mmHg 18%
    18:00 +40°C° 0 mm 4 mps 715 mmHg 22%
    19:00 +36°C° 0 mm 4 mps 715 mmHg 26%
    20:00 +34°C° 0 mm 3 mps 716 mmHg 30%
    21:00 +33°C° 0 mm 3 mps 716 mmHg 31%
    22:00 +31°C° 0 mm 2 mps 717 mmHg 33%
    23:00 +30°C° 0 mm 2 mps 718 mmHg 35%

    20 November, Wednesday

    Time Temperature Precipitation Wind Pressure Humidity
    00:00 +30°C° 0 mm 2 mps 717 mmHg 35%
    01:00 +29°C° 0 mm 2 mps 717 mmHg 36%
    02:00 +29°C° 0 mm 2 mps 717 mmHg 37%
    03:00 +28°C° 0 mm 2 mps 717 mmHg 39%
    04:00 +27°C° 0 mm 2 mps 717 mmHg 41%
    05:00 +26°C° 0 mm 2 mps 716 mmHg 42%
    06:00 +29°C° 0 mm 2 mps 717 mmHg 38%
    07:00 +31°C° 0 mm 3 mps 717 mmHg 33%
    08:00 +35°C° 0 mm 3 mps 717 mmHg 29%
    09:00 +37°C° 0 mm 4 mps 717 mmHg 26%
    10:00 +40°C° 0 mm 4 mps 717 mmHg 23%
    11:00 +42°C° 0 mm 5 mps 716 mmHg 19%
    12:00 +43°C° 0 mm 5 mps 716 mmHg 18%
    13:00 +45°C° 0 mm 5 mps 715 mmHg 18%
    14:00 +46°C° 0 mm 5 mps 714 mmHg 17%
    15:00 +46°C° 0 mm 5 mps 713 mmHg 17%
    16:00 +45°C° 0 mm 5 mps 713 mmHg 17%
    17:00 +45°C° 0 mm 5 mps 712 mmHg 18%
    18:00 +40°C° 0.2 mm 4 mps 712 mmHg 26%
    19:00 +36°C° 0.2 mm 4 mps 713 mmHg 34%
    20:00 +31°C° 0.2 mm 3 mps 713 mmHg 42%
    21:00 +30°C° 0.2 mm 3 mps 713 mmHg 44%
    22:00 +30°C° 0.2 mm 2 mps 714 mmHg 47%
    23:00 +29°C° 0.2 mm 2 mps 714 mmHg 50%
    Show more